This is the latest recevied weather packets stored in our database for station/object K1WJY. If no packets are shown the sender has not sent any weather packets the latest 10 day(s).
| Time | Temp. | Humidity | Pressure | Rain* | Wind** | Luminosity | Snow |
|---|---|---|---|---|---|---|---|
| 1787510714 | 21.11° C | 99% | 1013.7 hPa | 0 mm | - | 293 W/m² | - |
| 1787510410 | 21.11° C | 99% | 1013.7 hPa | 0 mm | - | 315 W/m² | - |
| 1787510105 | 21.11° C | 99% | 1013.8 hPa | 0 mm | - | 258 W/m² | - |
| 1787509801 | 20.56° C | 99% | 1013.7 hPa | 0 mm | - | 252 W/m² | - |
| 1787509497 | 20.56° C | 99% | 1013.8 hPa | 0 mm | - | 263 W/m² | - |
| 1787509193 | 20.56° C | 99% | 1013.9 hPa | 0 mm | - | 281 W/m² | - |
| 1787508888 | 20.56° C | 99% | 1013.9 hPa | 0 mm | - | 343 W/m² | - |
| 1787508583 | 20.56° C | 99% | 1013.9 hPa | 0 mm | - | 207 W/m² | - |
| 1787508279 | 20.56° C | 99% | 1013.9 hPa | 0 mm | - | 259 W/m² | - |
| 1787507975 | 20° C | 99% | 1014.1 hPa | 0 mm | - | 259 W/m² | - |
| 1787507672 | 20.56° C | 99% | 1014 hPa | 0 mm | - | 168 W/m² | - |
| 1787507367 | 20° C | 99% | 1014.1 hPa | 0 mm | - | 172 W/m² | - |
| 1787507063 | 20° C | 99% | 1014 hPa | 0 mm | - | 180 W/m² | - |
| 1787506758 | 20° C | 99% | 1014 hPa | 0 mm | - | 188 W/m² | - |
| 1787506456 | 20° C | 99% | 1013.9 hPa | 0 mm | - | 192 W/m² | - |
| 1787506155 | 20° C | 99% | 1013.8 hPa | 0 mm | - | 246 W/m² | - |
| 1787505851 | 20° C | 99% | 1013.9 hPa | 0 mm | - | 218 W/m² | - |
| 1787505546 | 20° C | 99% | 1014 hPa | 0 mm | - | 177 W/m² | - |
| 1787505241 | 20° C | 99% | 1014.4 hPa | 0 mm | - | 127 W/m² | - |
| 1787504940 | 20° C | 99% | 1014.1 hPa | 0 mm | - | 122 W/m² | - |
| 1787504636 | 20° C | 99% | 1014.2 hPa | 0 mm | - | 195 W/m² | - |
| 1787504332 | 20° C | 99% | 1014.2 hPa | 0 mm | - | 175 W/m² | - |
| 1787504028 | 20° C | 99% | 1014.3 hPa | 0 mm | - | 171 W/m² | - |
| 1787503727 | 20° C | 99% | 1014.3 hPa | 0 mm | - | 198 W/m² | - |
| 1787503424 | 20° C | 99% | 1014.2 hPa | 0 mm | - | 243 W/m² | - |
* Rain latest hour (hover to see other rain measurements)
** Current wind speed in m/s (hover to see current wind gust speed)